Starlink 6289

operational
NORAD ID: 56408 Int'l Des: 2023-061 Owner: SPXS Country: US Constellation: starlink
LEOCIRCULAR

关于 Starlink 6289

正在加载描述...

实时位置

正在加载3D地球...

即将过境

高度历史

Altitude vs Time

uPlot chart will show altitude changes over time

两行轨道根数

1 56408U 23061AL 26062.49160313 .00000323 00000-0 38982-4 0 9990
2 56408 43.0024 218.0209 0001440 270.8673 89.2004 15.02537584155972
Epoch: Mar 3, 2026 • Age: 35 hours

当前状态

高度 569.6 km
速度 7.58 km/s
星下点 -38.34°S, 119.68°E
发射日期 May 4, 2023
运行时间 2.8 years
类型 internet

技术详情

分类 Payload
质量 305.00 kg
干质量 290.00 kg
总质量 305.00 kg
长度 0.20 m
直径 2.80 m
跨度 9.00 m
形状 Box + pan
制造商 SPXS
平台类型 Starlink
阶段状态 In Orbit
所有者/国家 SPXS/US

大型星座

Loading constellations...